Time,TemperatureF,DewpointF,PressureIn,WindDirection,WindDirectionDegrees,WindSpeedMPH,WindSpeedGustMPH,Humidity,HourlyPrecipIn,Conditions,Clouds,dailyrainin,SoftwareType,DateUTC
2013-02-07 00:01:00,63.0,57.1,29.36,SSE,158,3.4,4.5,81,0.00,,,0.00,WUHU216HW,2013-02-07 06:01:00,
2013-02-07 00:06:00,63.0,57.1,29.35,SSE,158,4.0,5.8,81,0.00,,,0.00,WUHU216HW,2013-02-07 06:06:00,
2013-02-07 00:11:00,63.0,57.1,29.36,SE,135,4.7,5.8,81,0.00,,,0.00,WUHU216HW,2013-02-07 06:11:00,
2013-02-07 00:16:00,62.8,56.9,29.36,SE,135,2.9,4.7,81,0.00,,,0.00,WUHU216HW,2013-02-07 06:16:00,
2013-02-07 00:22:00,62.6,56.7,29.36,SSW,203,2.5,4.7,81,0.00,,,0.00,WUHU216HW,2013-02-07 06:22:00,
2013-02-07 00:27:00,62.6,56.7,29.36,SE,135,4.9,4.9,81,0.00,,,0.00,WUHU216HW,2013-02-07 06:27:00,
2013-02-07 00:32:00,62.6,56.7,29.36,SSW,203,3.4,4.9,81,0.00,,,0.00,WUHU216HW,2013-02-07 06:32:00,
2013-02-07 00:37:00,62.5,56.5,29.36,SE,135,2.2,4.5,81,0.00,,,0.00,WUHU216HW,2013-02-07 06:37:00,
2013-02-07 00:42:00,62.5,56.5,29.36,SSE,158,2.0,5.4,81,0.00,,,0.00,WUHU216HW,2013-02-07 06:42:00,
2013-02-07 00:47:00,62.3,56.3,29.36,SSE,158,3.8,5.4,81,0.00,,,0.00,WUHU216HW,2013-02-07 06:47:00,
2013-02-07 00:52:00,62.3,56.3,29.36,SSE,158,1.3,4.7,81,0.00,,,0.00,WUHU216HW,2013-02-07 06:52:00,
2013-02-07 00:57:00,62.3,56.7,29.36,ESE,113,4.0,6.0,82,0.00,,,0.00,WUHU216HW,2013-02-07 06:57:00,
2013-02-07 01:02:00,62.3,56.7,29.36,ESE,113,3.6,6.0,82,0.00,,,0.00,WUHU216HW,2013-02-07 07:02:00,
2013-02-07 01:07:00,62.1,56.5,29.36,SSW,203,3.1,4.5,82,0.00,,,0.00,WUHU216HW,2013-02-07 07:07:00,
2013-02-07 01:12:00,61.9,56.3,29.36,ESE,113,2.9,5.4,82,0.00,,,0.00,WUHU216HW,2013-02-07 07:12:00,
2013-02-07 01:17:00,61.9,56.3,29.36,SSW,203,2.9,5.4,82,0.00,,,0.00,WUHU216HW,2013-02-07 07:17:00,
2013-02-07 01:22:00,61.9,56.3,29.36,ESE,113,6.5,7.6,82,0.00,,,0.00,WUHU216HW,2013-02-07 07:22:00,
2013-02-07 01:27:00,61.7,56.5,29.36,SSW,203,4.5,9.8,83,0.00,,,0.00,WUHU216HW,2013-02-07 07:27:00,
2013-02-07 01:33:00,61.6,56.3,29.36,SSE,158,4.0,9.8,83,0.00,,,0.00,WUHU216HW,2013-02-07 07:33:00,
2013-02-07 01:38:00,61.6,56.3,29.36,South,180,5.4,6.5,83,0.00,,,0.00,WUHU216HW,2013-02-07 07:38:00,
2013-02-07 01:43:00,61.4,56.2,29.37,SSE,158,2.0,5.4,83,0.00,,,0.00,WUHU216HW,2013-02-07 07:43:00,
2013-02-07 01:48:00,61.4,56.2,29.36,ESE,113,2.2,4.9,83,0.00,,,0.00,WUHU216HW,2013-02-07 07:48:00,
2013-02-07 01:53:00,61.2,56.1,29.36,SE,135,3.1,3.8,83,0.00,,,0.00,WUHU216HW,2013-02-07 07:53:00,
2013-02-07 01:58:00,61.2,56.1,29.36,SSE,158,2.2,3.4,83,0.00,,,0.00,WUHU216HW,2013-02-07 07:58:00,
2013-02-07 02:03:00,61.0,56.2,29.36,South,180,2.5,4.9,84,0.00,,,0.00,WUHU216HW,2013-02-07 08:03:00,
2013-02-07 02:08:00,60.8,56.0,29.36,East,90,1.6,4.9,84,0.00,,,0.00,WUHU216HW,2013-02-07 08:08:00,
2013-02-07 02:13:00,60.8,56.0,29.36,SSE,158,1.3,4.3,84,0.00,,,0.00,WUHU216HW,2013-02-07 08:13:00,
2013-02-07 02:18:00,60.8,56.0,29.36,SSW,203,1.8,4.3,84,0.00,,,0.00,WUHU216HW,2013-02-07 08:18:00,
2013-02-07 02:23:00,60.8,56.3,29.36,SSE,158,1.1,3.4,85,0.00,,,0.00,WUHU216HW,2013-02-07 08:23:00,
2013-02-07 02:28:00,60.7,56.2,29.36,SSE,158,1.3,3.4,85,0.00,,,0.00,WUHU216HW,2013-02-07 08:28:00,
2013-02-07 02:33:00,60.7,56.2,29.36,SE,135,1.1,2.0,85,0.00,,,0.00,WUHU216HW,2013-02-07 08:33:00,
2013-02-07 02:38:00,60.7,56.2,29.36,South,180,1.6,2.5,85,0.00,,,0.00,WUHU216HW,2013-02-07 08:38:00,
2013-02-07 02:43:00,60.7,56.2,29.36,SSE,158,2.0,2.5,85,0.00,,,0.00,WUHU216HW,2013-02-07 08:43:00,
2013-02-07 02:48:00,60.7,56.2,29.35,SE,135,1.3,2.0,85,0.00,,,0.00,WUHU216HW,2013-02-07 08:48:00,
2013-02-07 02:53:00,60.5,56.4,29.35,SE,135,0.4,3.4,86,0.00,,,0.00,WUHU216HW,2013-02-07 08:53:00,
2013-02-07 02:58:00,60.5,56.4,29.35,SE,135,2.2,3.4,86,0.00,,,0.00,WUHU216HW,2013-02-07 08:58:00,
2013-02-07 03:04:00,60.3,56.4,29.35,SSE,158,2.2,2.5,87,0.00,,,0.00,WUHU216HW,2013-02-07 09:04:00,
2013-02-07 03:09:00,60.3,56.4,29.35,South,180,1.8,2.7,87,0.00,,,0.00,WUHU216HW,2013-02-07 09:09:00,
2013-02-07 03:14:00,60.3,56.4,29.35,SSE,158,1.1,2.7,87,0.00,,,0.00,WUHU216HW,2013-02-07 09:14:00,
2013-02-07 03:19:00,60.1,56.3,29.35,SSW,203,3.6,3.6,87,0.00,,,0.00,WUHU216HW,2013-02-07 09:19:00,
2013-02-07 03:24:00,60.1,56.3,29.35,SSW,203,2.2,4.0,87,0.00,,,0.00,WUHU216HW,2013-02-07 09:24:00,
2013-02-07 03:29:00,60.1,56.3,29.35,SSW,203,2.7,4.0,87,0.00,,,0.00,WUHU216HW,2013-02-07 09:29:00,
2013-02-07 03:34:00,59.9,56.1,29.35,SE,135,2.9,3.4,87,0.00,,,0.00,WUHU216HW,2013-02-07 09:34:00,
2013-02-07 03:39:00,59.9,56.4,29.35,SSW,203,3.8,3.8,88,0.00,,,0.00,WUHU216HW,2013-02-07 09:39:00,
2013-02-07 03:44:00,59.9,56.4,29.35,SSE,158,1.8,3.8,88,0.00,,,0.00,WUHU216HW,2013-02-07 09:44:00,
2013-02-07 03:49:00,59.8,56.3,29.35,SW,225,1.8,3.1,88,0.00,,,0.00,WUHU216HW,2013-02-07 09:49:00,
2013-02-07 03:55:00,59.8,56.3,29.35,SE,135,1.3,3.4,88,0.00,,,0.00,WUHU216HW,2013-02-07 09:55:00,
2013-02-07 04:00:00,59.8,56.3,29.35,South,180,1.3,3.4,88,0.00,,,0.00,WUHU216HW,2013-02-07 10:00:00,
2013-02-07 04:05:00,59.6,56.1,29.34,SSE,158,3.1,3.4,88,0.00,,,0.00,WUHU216HW,2013-02-07 10:05:00,
2013-02-07 04:10:00,59.6,56.3,29.34,SE,135,1.8,3.4,89,0.00,,,0.00,WUHU216HW,2013-02-07 10:10:00,
2013-02-07 04:15:00,59.6,56.3,29.34,SW,225,1.8,4.3,89,0.00,,,0.00,WUHU216HW,2013-02-07 10:15:00,
2013-02-07 04:20:00,59.6,56.3,29.34,SE,135,1.1,4.3,89,0.00,,,0.00,WUHU216HW,2013-02-07 10:20:00,
2013-02-07 04:25:00,59.6,56.3,29.34,SSE,158,1.6,2.2,89,0.00,,,0.00,WUHU216HW,2013-02-07 10:25:00,
2013-02-07 04:30:00,59.6,56.3,29.34,SE,135,1.8,2.2,89,0.00,,,0.00,WUHU216HW,2013-02-07 10:30:00,
2013-02-07 04:35:00,59.6,56.3,29.34,SE,135,0.4,1.8,89,0.00,,,0.00,WUHU216HW,2013-02-07 10:35:00,
2013-02-07 04:40:00,59.6,56.3,29.34,ESE,113,0.9,2.5,89,0.00,,,0.00,WUHU216HW,2013-02-07 10:40:00,
2013-02-07 04:45:00,59.6,56.3,29.35,South,180,1.1,2.5,89,0.00,,,0.00,WUHU216HW,2013-02-07 10:45:00,
2013-02-07 04:50:00,59.6,56.3,29.35,ESE,113,2.7,2.7,89,0.00,,,0.00,WUHU216HW,2013-02-07 10:50:00,
2013-02-07 04:55:00,59.6,56.3,29.35,ESE,113,1.6,2.7,89,0.00,,,0.00,WUHU216HW,2013-02-07 10:55:00,
2013-02-07 05:00:00,59.6,56.3,29.34,SE,135,0.2,2.7,89,0.00,,,0.00,WUHU216HW,2013-02-07 11:00:00,
2013-02-07 05:05:00,59.6,56.3,29.34,ESE,113,1.1,3.4,89,0.00,,,0.00,WUHU216HW,2013-02-07 11:05:00,
2013-02-07 05:11:00,59.6,56.3,29.34,South,180,0.4,3.4,89,0.00,,,0.00,WUHU216HW,2013-02-07 11:11:00,
2013-02-07 05:16:00,59.6,56.3,29.34,SW,225,1.3,3.1,89,0.00,,,0.00,WUHU216HW,2013-02-07 11:16:00,
2013-02-07 05:21:00,59.6,56.3,29.34,East,90,0.0,1.3,89,0.00,,,0.00,WUHU216HW,2013-02-07 11:21:00,
2013-02-07 05:26:00,59.6,56.7,29.34,SE,135,0.4,1.1,90,0.00,,,0.00,WUHU216HW,2013-02-07 11:26:00,
2013-02-07 05:31:00,59.6,56.7,29.34,SE,135,0.9,1.1,90,0.00,,,0.00,WUHU216HW,2013-02-07 11:31:00,
2013-02-07 05:36:00,59.6,56.7,29.34,SE,135,1.1,2.5,90,0.00,,,0.00,WUHU216HW,2013-02-07 11:36:00,
2013-02-07 05:41:00,59.6,56.7,29.34,SE,135,1.1,2.5,90,0.00,,,0.00,WUHU216HW,2013-02-07 11:41:00,
2013-02-07 05:46:00,59.6,56.7,29.34,SE,135,0.4,1.8,90,0.00,,,0.00,WUHU216HW,2013-02-07 11:46:00,
2013-02-07 05:51:00,59.6,56.7,29.34,SSE,158,0.7,2.5,90,0.00,,,0.00,WUHU216HW,2013-02-07 11:51:00,
2013-02-07 05:56:00,59.6,56.7,29.34,ESE,113,1.6,2.5,90,0.00,,,0.00,WUHU216HW,2013-02-07 11:56:00,
2013-02-07 06:01:00,59.6,56.7,29.34,ESE,113,1.6,1.8,90,0.00,,,0.00,WUHU216HW,2013-02-07 12:01:00,
2013-02-07 06:06:00,59.4,56.5,29.34,SE,135,1.3,1.8,90,0.00,,,0.00,WUHU216HW,2013-02-07 12:06:00,
2013-02-07 06:11:00,59.6,56.7,29.34,ESE,113,0.7,1.3,90,0.00,,,0.00,WUHU216HW,2013-02-07 12:11:00,
2013-02-07 06:16:00,59.6,56.7,29.34,SE,135,0.4,1.3,90,0.00,,,0.00,WUHU216HW,2013-02-07 12:16:00,
2013-02-07 06:21:00,59.4,56.5,29.35,South,180,0.4,1.1,90,0.00,,,0.00,WUHU216HW,2013-02-07 12:21:00,
2013-02-07 06:26:00,59.4,56.5,29.35,SSW,203,1.3,2.7,90,0.00,,,0.00,WUHU216HW,2013-02-07 12:26:00,
2013-02-07 06:31:00,59.6,56.7,29.34,South,180,1.6,2.7,90,0.00,,,0.00,WUHU216HW,2013-02-07 12:31:00,
2013-02-07 06:36:00,59.4,56.5,29.35,South,180,0.7,1.8,90,0.00,,,0.00,WUHU216HW,2013-02-07 12:36:00,
2013-02-07 06:41:00,59.4,56.5,29.35,East,90,0.4,1.8,90,0.00,,,0.00,WUHU216HW,2013-02-07 12:41:00,
2013-02-07 06:46:00,59.6,56.7,29.35,ESE,113,1.1,2.0,90,0.00,,,0.00,WUHU216HW,2013-02-07 12:46:00,
2013-02-07 06:51:00,59.4,56.5,29.35,SE,135,1.8,2.7,90,0.00,,,0.00,WUHU216HW,2013-02-07 12:51:00,
2013-02-07 06:56:00,59.4,56.5,29.35,SE,135,1.8,2.7,90,0.00,,,0.00,WUHU216HW,2013-02-07 12:56:00,
2013-02-07 07:02:00,59.4,56.5,29.35,SSE,158,1.6,2.2,90,0.00,,,0.00,WUHU216HW,2013-02-07 13:02:00,
2013-02-07 07:07:00,59.4,56.5,29.35,SE,135,0.9,2.2,90,0.00,,,0.00,WUHU216HW,2013-02-07 13:07:00,
2013-02-07 07:12:00,59.4,56.5,29.35,SE,135,0.7,2.0,90,0.00,,,0.00,WUHU216HW,2013-02-07 13:12:00,
2013-02-07 07:17:00,59.4,56.5,29.35,SE,135,1.1,2.0,90,0.01,,,0.00,WUHU216HW,2013-02-07 13:17:00,
2013-02-07 07:22:00,59.4,56.5,29.36,SSE,158,0.7,1.8,90,0.01,,,0.01,WUHU216HW,2013-02-07 13:22:00,
2013-02-07 07:27:00,59.4,56.5,29.36,SSW,203,1.8,1.8,90,0.01,,,0.01,WUHU216HW,2013-02-07 13:27:00,
2013-02-07 07:32:00,59.4,56.5,29.36,SSW,203,1.3,2.7,90,0.01,,,0.01,WUHU216HW,2013-02-07 13:32:00,
2013-02-07 07:37:00,59.4,56.5,29.36,SSW,203,3.1,3.1,90,0.01,,,0.01,WUHU216HW,2013-02-07 13:37:00,
2013-02-07 07:42:00,59.4,56.5,29.36,SSW,203,1.1,3.1,90,0.01,,,0.01,WUHU216HW,2013-02-07 13:42:00,
2013-02-07 07:47:00,59.4,56.5,29.37,SSW,203,2.5,2.5,90,0.01,,,0.01,WUHU216HW,2013-02-07 13:47:00,
2013-02-07 07:53:00,59.4,56.5,29.37,SSW,203,1.6,2.5,90,0.01,,,0.01,WUHU216HW,2013-02-07 13:53:00,
2013-02-07 07:58:00,59.4,56.5,29.37,SSW,203,1.1,2.2,90,0.01,,,0.01,WUHU216HW,2013-02-07 13:58:00,
2013-02-07 08:03:00,59.4,56.5,29.37,WSW,248,0.4,2.0,90,0.01,,,0.01,WUHU216HW,2013-02-07 14:03:00,
2013-02-07 08:08:00,59.4,56.5,29.37,West,270,0.2,1.8,90,0.01,,,0.01,WUHU216HW,2013-02-07 14:08:00,
2013-02-07 08:13:00,59.4,56.5,29.37,West,270,1.1,1.6,90,0.01,,,0.01,WUHU216HW,2013-02-07 14:13:00,
2013-02-07 08:18:00,59.4,56.8,29.38,South,180,0.4,2.5,91,0.00,,,0.01,WUHU216HW,2013-02-07 14:18:00,
2013-02-07 08:23:00,59.6,57.0,29.38,West,270,1.1,3.1,91,0.00,,,0.01,WUHU216HW,2013-02-07 14:23:00,
2013-02-07 08:28:00,59.6,57.0,29.38,SW,225,1.8,4.0,91,0.00,,,0.01,WUHU216HW,2013-02-07 14:28:00,
2013-02-07 08:33:00,59.8,57.2,29.39,South,180,0.4,4.0,91,0.00,,,0.01,WUHU216HW,2013-02-07 14:33:00,
2013-02-07 08:38:00,59.9,57.3,29.39,NW,315,0.4,2.9,91,0.00,,,0.01,WUHU216HW,2013-02-07 14:38:00,
2013-02-07 08:43:00,60.1,57.5,29.39,WSW,248,1.8,2.2,91,0.00,,,0.01,WUHU216HW,2013-02-07 14:43:00,
2013-02-07 08:48:00,60.5,57.9,29.39,SSW,203,1.8,1.8,91,0.00,,,0.01,WUHU216HW,2013-02-07 14:48:00,
2013-02-07 08:53:00,60.8,58.2,29.39,West,270,0.4,2.5,91,0.00,,,0.01,WUHU216HW,2013-02-07 14:53:00,
2013-02-07 08:58:00,61.0,58.4,29.38,South,180,2.2,2.5,91,0.00,,,0.01,WUHU216HW,2013-02-07 14:58:00,
2013-02-07 09:03:00,61.2,58.3,29.39,West,270,0.0,2.2,90,0.00,,,0.01,WUHU216HW,2013-02-07 15:03:00,
2013-02-07 09:08:00,61.6,58.7,29.39,SW,225,1.1,1.8,90,0.00,,,0.01,WUHU216HW,2013-02-07 15:08:00,
2013-02-07 09:13:00,61.6,58.7,29.39,WSW,248,0.0,1.8,90,0.00,,,0.01,WUHU216HW,2013-02-07 15:13:00,
2013-02-07 09:18:00,61.7,58.9,29.39,SSW,203,1.8,1.8,90,0.00,,,0.01,WUHU216HW,2013-02-07 15:18:00,
2013-02-07 09:23:00,61.7,58.5,29.39,South,180,0.0,2.7,89,0.00,,,0.01,WUHU216HW,2013-02-07 15:23:00,
2013-02-07 09:28:00,61.9,58.7,29.40,WNW,293,1.3,2.7,89,0.00,,,0.01,WUHU216HW,2013-02-07 15:28:00,
2013-02-07 09:33:00,61.9,58.7,29.40,NNW,338,0.2,1.6,89,0.00,,,0.01,WUHU216HW,2013-02-07 15:33:00,
2013-02-07 09:38:00,61.7,58.5,29.40,NNW,338,0.2,1.3,89,0.00,,,0.01,WUHU216HW,2013-02-07 15:38:00,
2013-02-07 09:43:00,61.6,58.3,29.41,NNW,338,0.0,0.9,89,0.00,,,0.01,WUHU216HW,2013-02-07 15:43:00,
2013-02-07 09:48:00,61.9,58.7,29.41,West,270,0.0,1.1,89,0.00,,,0.01,WUHU216HW,2013-02-07 15:48:00,
2013-02-07 09:54:00,62.1,58.9,29.41,NNW,338,1.1,2.0,89,0.00,,,0.01,WUHU216HW,2013-02-07 15:54:00,
2013-02-07 09:59:00,62.3,58.7,29.41,NW,315,1.6,2.2,88,0.00,,,0.01,WUHU216HW,2013-02-07 15:59:00,
2013-02-07 10:04:00,62.3,59.0,29.41,NNE,23,2.2,2.5,89,0.00,,,0.01,WUHU216HW,2013-02-07 16:04:00,
2013-02-07 10:09:00,62.3,58.7,29.41,WNW,293,1.8,3.4,88,0.00,,,0.01,WUHU216HW,2013-02-07 16:09:00,
2013-02-07 10:14:00,62.3,58.7,29.42,NW,315,0.2,3.4,88,0.00,,,0.01,WUHU216HW,2013-02-07 16:14:00,
2013-02-07 10:19:00,62.5,58.9,29.41,NNW,338,2.0,2.0,88,0.00,,,0.01,WUHU216HW,2013-02-07 16:19:00,
2013-02-07 10:24:00,62.6,59.0,29.41,North,0,0.0,2.0,88,0.00,,,0.01,WUHU216HW,2013-02-07 16:24:00,
2013-02-07 10:29:00,62.8,59.2,29.41,West,270,1.1,1.8,88,0.00,,,0.01,WUHU216HW,2013-02-07 16:29:00,
2013-02-07 10:34:00,63.2,59.3,29.42,ENE,68,0.7,1.8,87,0.00,,,0.01,WUHU216HW,2013-02-07 16:34:00,
2013-02-07 10:39:00,63.5,59.7,29.41,WNW,293,0.9,1.3,87,0.00,,,0.01,WUHU216HW,2013-02-07 16:39:00,
2013-02-07 10:44:00,64.1,60.2,29.41,SW,225,0.7,0.9,87,0.00,,,0.01,WUHU216HW,2013-02-07 16:44:00,
2013-02-07 10:49:00,64.6,60.7,29.41,WSW,248,0.7,1.6,87,0.00,,,0.01,WUHU216HW,2013-02-07 16:49:00,
2013-02-07 10:54:00,65.0,60.7,29.41,South,180,0.9,2.0,86,0.00,,,0.01,WUHU216HW,2013-02-07 16:54:00,
2013-02-07 11:00:00,65.3,61.0,29.40,SSE,158,1.3,4.0,86,0.00,,,0.01,WUHU216HW,2013-02-07 17:00:00,
2013-02-07 11:05:00,65.5,61.2,29.40,SSW,203,2.2,4.0,86,0.00,,,0.01,WUHU216HW,2013-02-07 17:05:00,
2013-02-07 11:10:00,65.9,61.2,29.40,WSW,248,3.6,4.5,85,0.00,,,0.01,WUHU216HW,2013-02-07 17:10:00,
2013-02-07 11:15:00,66.1,61.0,29.40,SW,225,4.7,4.7,84,0.00,,,0.01,WUHU216HW,2013-02-07 17:15:00,
2013-02-07 11:20:00,66.6,61.6,29.40,SSE,158,3.1,4.7,84,0.00,,,0.01,WUHU216HW,2013-02-07 17:20:00,
2013-02-07 11:25:00,67.1,62.1,29.39,WNW,293,2.5,4.7,84,0.00,,,0.01,WUHU216HW,2013-02-07 17:25:00,
2013-02-07 11:30:00,67.3,61.7,29.39,SW,225,2.7,4.7,82,0.00,,,0.01,WUHU216HW,2013-02-07 17:30:00,
2013-02-07 11:35:00,67.5,62.2,29.39,SE,135,3.4,4.0,83,0.00,,,0.01,WUHU216HW,2013-02-07 17:35:00,
2013-02-07 11:40:00,68.0,62.4,29.39,South,180,2.7,4.5,82,0.00,,,0.01,WUHU216HW,2013-02-07 17:40:00,
2013-02-07 11:45:00,68.9,62.9,29.39,South,180,5.4,6.7,81,0.00,,,0.01,WUHU216HW,2013-02-07 17:45:00,
2013-02-07 11:50:00,69.3,62.9,29.39,SW,225,2.7,6.7,80,0.00,,,0.01,WUHU216HW,2013-02-07 17:50:00,
2013-02-07 11:55:00,69.3,62.5,29.39,West,270,1.3,5.1,79,0.00,,,0.01,WUHU216HW,2013-02-07 17:55:00,
2013-02-07 12:00:00,69.5,62.6,29.39,SSW,203,4.0,6.0,79,0.00,,,0.01,WUHU216HW,2013-02-07 18:00:00,
2013-02-07 12:05:00,70.0,62.8,29.39,WSW,248,2.7,6.0,78,0.00,,,0.01,WUHU216HW,2013-02-07 18:05:00,
2013-02-07 12:10:00,70.2,62.2,29.39,SSW,203,4.7,7.6,76,0.00,,,0.01,WUHU216HW,2013-02-07 18:10:00,
2013-02-07 12:15:00,70.0,62.4,29.38,SW,225,4.0,7.6,77,0.00,,,0.01,WUHU216HW,2013-02-07 18:15:00,
2013-02-07 12:20:00,70.4,62.7,29.38,SSW,203,2.0,5.8,77,0.00,,,0.01,WUHU216HW,2013-02-07 18:20:00,
2013-02-07 12:25:00,70.7,62.7,29.38,WSW,248,6.5,7.2,76,0.00,,,0.01,WUHU216HW,2013-02-07 18:25:00,
2013-02-07 12:30:00,70.7,62.4,29.38,SSW,203,4.3,7.2,75,0.00,,,0.01,WUHU216HW,2013-02-07 18:30:00,
2013-02-07 12:35:00,70.7,62.0,29.38,SW,225,2.9,4.7,74,0.00,,,0.01,WUHU216HW,2013-02-07 18:35:00,
2013-02-07 12:40:00,71.1,62.4,29.38,NW,315,3.4,4.7,74,0.00,,,0.01,WUHU216HW,2013-02-07 18:40:00,
2013-02-07 12:45:00,71.6,62.9,29.37,SW,225,2.9,4.0,74,0.00,,,0.01,WUHU216HW,2013-02-07 18:45:00,
2013-02-07 12:51:00,72.0,62.9,29.37,West,270,5.4,6.3,73,0.00,,,0.01,WUHU216HW,2013-02-07 18:51:00,
2013-02-07 12:56:00,72.0,63.3,29.37,SW,225,5.8,6.3,74,0.00,,,0.01,WUHU216HW,2013-02-07 18:56:00,
2013-02-07 13:01:00,72.0,63.3,29.36,SSW,203,1.6,5.8,74,0.00,,,0.01,WUHU216HW,2013-02-07 19:01:00,
2013-02-07 13:06:00,72.4,63.6,29.36,WSW,248,3.4,5.4,74,0.00,,,0.01,WUHU216HW,2013-02-07 19:06:00,
2013-02-07 13:11:00,72.7,63.6,29.35,SW,225,5.4,5.6,73,0.00,,,0.01,WUHU216HW,2013-02-07 19:11:00,
2013-02-07 13:16:00,72.9,63.8,29.35,SW,225,5.4,6.3,73,0.00,,,0.01,WUHU216HW,2013-02-07 19:16:00,
2013-02-07 13:21:00,73.1,63.5,29.34,SSW,203,4.3,6.3,72,0.00,,,0.01,WUHU216HW,2013-02-07 19:21:00,
2013-02-07 13:26:00,73.4,63.9,29.34,SSE,158,1.8,7.6,72,0.00,,,0.01,WUHU216HW,2013-02-07 19:26:00,
2013-02-07 13:31:00,73.6,63.7,29.34,SW,225,6.9,7.6,71,0.00,,,0.01,WUHU216HW,2013-02-07 19:31:00,
2013-02-07 13:36:00,73.6,63.7,29.34,SSW,203,4.0,7.2,71,0.00,,,0.01,WUHU216HW,2013-02-07 19:36:00,
2013-02-07 13:41:00,73.6,63.4,29.34,WSW,248,8.5,8.5,70,0.00,,,0.01,WUHU216HW,2013-02-07 19:41:00,
2013-02-07 13:46:00,73.6,63.7,29.34,SSW,203,3.1,8.5,71,0.00,,,0.01,WUHU216HW,2013-02-07 19:46:00,
2013-02-07 13:51:00,73.8,63.1,29.34,WNW,293,8.3,8.3,69,0.00,,,0.01,WUHU216HW,2013-02-07 19:51:00,
2013-02-07 13:56:00,74.2,64.2,29.34,SSE,158,4.0,8.3,71,0.00,,,0.01,WUHU216HW,2013-02-07 19:56:00,
2013-02-07 14:01:00,74.3,64.0,29.33,SSW,203,4.5,6.5,70,0.00,,,0.01,WUHU216HW,2013-02-07 20:01:00,
2013-02-07 14:06:00,74.3,64.0,29.33,SW,225,5.4,8.3,70,0.00,,,0.01,WUHU216HW,2013-02-07 20:06:00,
2013-02-07 14:11:00,74.7,63.9,29.33,SW,225,2.0,8.3,69,0.00,,,0.01,WUHU216HW,2013-02-07 20:11:00,
2013-02-07 14:16:00,74.9,64.1,29.33,South,180,5.4,7.4,69,0.00,,,0.01,WUHU216HW,2013-02-07 20:16:00,
2013-02-07 14:21:00,74.9,63.6,29.33,SSW,203,4.0,6.5,68,0.00,,,0.01,WUHU216HW,2013-02-07 20:21:00,
2013-02-07 14:26:00,75.1,63.4,29.32,WSW,248,7.8,7.8,67,0.00,,,0.01,WUHU216HW,2013-02-07 20:26:00,
2013-02-07 14:31:00,75.2,63.9,29.33,WSW,248,4.7,7.8,68,0.00,,,0.01,WUHU216HW,2013-02-07 20:31:00,
2013-02-07 14:37:00,75.2,63.6,29.32,SW,225,4.9,7.4,67,0.00,,,0.01,WUHU216HW,2013-02-07 20:37:00,
2013-02-07 14:42:00,75.6,63.5,29.32,WSW,248,6.3,7.4,66,0.00,,,0.01,WUHU216HW,2013-02-07 20:42:00,
2013-02-07 14:47:00,75.8,63.2,29.32,WSW,248,9.8,9.8,65,0.00,,,0.01,WUHU216HW,2013-02-07 20:47:00,
2013-02-07 14:52:00,76.0,63.4,29.32,West,270,4.7,9.8,65,0.00,,,0.01,WUHU216HW,2013-02-07 20:52:00,
2013-02-07 14:57:00,76.1,62.7,29.32,West,270,7.2,7.2,63,0.00,,,0.01,WUHU216HW,2013-02-07 20:57:00,
2013-02-07 15:02:00,76.1,63.1,29.32,WSW,248,4.0,8.1,64,0.00,,,0.01,WUHU216HW,2013-02-07 21:02:00,
2013-02-07 15:07:00,76.1,62.7,29.32,SW,225,6.3,10.1,63,0.00,,,0.01,WUHU216HW,2013-02-07 21:07:00,
2013-02-07 15:12:00,76.3,62.8,29.32,West,270,4.3,10.1,63,0.00,,,0.01,WUHU216HW,2013-02-07 21:12:00,
2013-02-07 15:17:00,76.3,62.4,29.31,WSW,248,4.5,7.8,62,0.00,,,0.01,WUHU216HW,2013-02-07 21:17:00,
2013-02-07 15:22:00,76.3,62.8,29.31,WSW,248,4.7,6.3,63,0.00,,,0.01,WUHU216HW,2013-02-07 21:22:00,
2013-02-07 15:27:00,76.5,62.9,29.30,West,270,3.1,6.9,63,0.00,,,0.01,WUHU216HW,2013-02-07 21:27:00,
2013-02-07 15:32:00,76.7,63.1,29.30,SSW,203,5.8,6.9,63,0.00,,,0.01,WUHU216HW,2013-02-07 21:32:00,
2013-02-07 15:37:00,77.0,63.0,29.31,SW,225,4.0,7.8,62,0.00,,,0.01,WUHU216HW,2013-02-07 21:37:00,
2013-02-07 15:42:00,77.0,62.1,29.30,West,270,0.7,7.8,60,0.00,,,0.01,WUHU216HW,2013-02-07 21:42:00,
2013-02-07 15:47:00,77.0,61.6,29.30,SSW,203,7.4,7.6,59,0.00,,,0.01,WUHU216HW,2013-02-07 21:47:00,
2013-02-07 15:52:00,77.0,62.6,29.30,SSW,203,6.0,7.4,61,0.00,,,0.01,WUHU216HW,2013-02-07 21:52:00,
2013-02-07 15:57:00,77.0,62.6,29.30,WSW,248,3.4,7.2,61,0.00,,,0.01,WUHU216HW,2013-02-07 21:57:00,
2013-02-07 16:02:00,77.0,62.6,29.30,South,180,2.5,6.7,61,0.00,,,0.01,WUHU216HW,2013-02-07 22:02:00,
2013-02-07 16:07:00,77.2,62.3,29.30,ESE,113,2.5,6.7,60,0.00,,,0.01,WUHU216HW,2013-02-07 22:07:00,
2013-02-07 16:12:00,77.4,61.9,29.30,West,270,2.9,4.3,59,0.00,,,0.01,WUHU216HW,2013-02-07 22:12:00,
2013-02-07 16:18:00,77.4,62.5,29.30,SW,225,5.4,6.0,60,0.00,,,0.01,WUHU216HW,2013-02-07 22:18:00,
2013-02-07 16:23:00,77.4,61.5,29.30,NW,315,1.8,8.3,58,0.00,,,0.01,WUHU216HW,2013-02-07 22:23:00,
2013-02-07 16:28:00,77.4,61.9,29.30,South,180,3.4,8.3,59,0.00,,,0.01,WUHU216HW,2013-02-07 22:28:00,
2013-02-07 16:33:00,77.4,62.5,29.30,WSW,248,1.1,4.7,60,0.00,,,0.01,WUHU216HW,2013-02-07 22:33:00,
2013-02-07 16:38:00,77.4,62.5,29.30,SW,225,3.4,5.6,60,0.00,,,0.01,WUHU216HW,2013-02-07 22:38:00,
2013-02-07 16:43:00,77.6,62.6,29.30,SW,225,2.7,6.0,60,0.00,,,0.01,WUHU216HW,2013-02-07 22:43:00,
2013-02-07 16:48:00,77.6,62.6,29.30,SSW,203,4.5,6.7,60,0.00,,,0.01,WUHU216HW,2013-02-07 22:48:00,
2013-02-07 16:53:00,77.4,62.5,29.30,WSW,248,4.0,6.7,60,0.00,,,0.01,WUHU216HW,2013-02-07 22:53:00,
2013-02-07 16:58:00,77.4,62.5,29.30,WSW,248,2.9,5.6,60,0.00,,,0.01,WUHU216HW,2013-02-07 22:58:00,
2013-02-07 17:03:00,77.2,62.3,29.30,SW,225,4.7,6.7,60,0.00,,,0.01,WUHU216HW,2013-02-07 23:03:00,
2013-02-07 17:08:00,77.2,62.3,29.30,SSW,203,2.0,6.7,60,0.00,,,0.01,WUHU216HW,2013-02-07 23:08:00,
2013-02-07 17:13:00,77.0,62.1,29.30,SW,225,2.7,4.5,60,0.00,,,0.01,WUHU216HW,2013-02-07 23:13:00,
2013-02-07 17:18:00,77.0,62.1,29.30,SSW,203,6.3,6.3,60,0.00,,,0.01,WUHU216HW,2013-02-07 23:18:00,
2013-02-07 17:23:00,77.0,61.6,29.30,SW,225,6.3,6.3,59,0.00,,,0.01,WUHU216HW,2013-02-07 23:23:00,
2013-02-07 17:28:00,76.7,61.7,29.31,SW,225,2.5,6.3,60,0.00,,,0.01,WUHU216HW,2013-02-07 23:28:00,
2013-02-07 17:34:00,76.5,61.7,29.31,SW,225,4.3,4.5,60,0.00,,,0.01,WUHU216HW,2013-02-07 23:34:00,
2013-02-07 17:39:00,76.3,61.5,29.31,SSE,158,2.9,5.8,60,0.00,,,0.01,WUHU216HW,2013-02-07 23:39:00,
2013-02-07 17:44:00,76.1,61.3,29.31,SW,225,3.6,5.8,60,0.00,,,0.01,WUHU216HW,2013-02-07 23:44:00,
2013-02-07 17:49:00,76.0,61.6,29.31,SSW,203,2.9,6.3,61,0.00,,,0.01,WUHU216HW,2013-02-07 23:49:00,
2013-02-07 17:54:00,75.6,61.2,29.31,SSW,203,3.4,6.3,61,0.00,,,0.01,WUHU216HW,2013-02-07 23:54:00,
2013-02-07 17:59:00,75.4,61.1,29.31,South,180,2.2,5.4,61,0.00,,,0.01,WUHU216HW,2013-02-07 23:59:00,
2013-02-07 18:04:00,75.2,60.9,29.32,SSW,203,4.9,4.9,61,0.00,,,0.01,WUHU216HW,2013-02-08 00:04:00,
2013-02-07 18:09:00,74.9,60.6,29.32,SSW,203,2.5,4.9,61,0.00,,,0.01,WUHU216HW,2013-02-08 00:09:00,
2013-02-07 18:14:00,74.5,60.7,29.32,SSW,203,2.7,3.4,62,0.00,,,0.01,WUHU216HW,2013-02-08 00:14:00,
2013-02-07 18:19:00,74.2,60.3,29.32,SW,225,1.8,3.4,62,0.00,,,0.01,WUHU216HW,2013-02-08 00:19:00,
2013-02-07 18:24:00,74.0,60.1,29.32,SW,225,1.1,2.9,62,0.00,,,0.01,WUHU216HW,2013-02-08 00:24:00,
2013-02-07 18:29:00,73.4,60.0,29.33,SW,225,0.4,2.5,63,0.00,,,0.01,WUHU216HW,2013-02-08 00:29:00,
2013-02-07 18:35:00,73.1,59.7,29.33,WSW,248,2.5,2.5,63,0.00,,,0.01,WUHU216HW,2013-02-08 00:35:00,
2013-02-07 18:40:00,72.7,59.8,29.33,SW,225,1.8,2.5,64,0.00,,,0.01,WUHU216HW,2013-02-08 00:40:00,
2013-02-07 18:45:00,72.4,59.5,29.34,WSW,248,2.5,2.5,64,0.00,,,0.01,WUHU216HW,2013-02-08 00:45:00,
2013-02-07 18:50:00,72.2,59.8,29.34,WSW,248,1.6,2.5,65,0.00,,,0.01,WUHU216HW,2013-02-08 00:50:00,
2013-02-07 18:55:00,71.8,59.4,29.34,SW,225,1.6,2.0,65,0.00,,,0.01,WUHU216HW,2013-02-08 00:55:00,
2013-02-07 19:00:00,71.5,59.5,29.34,SW,225,2.7,2.7,66,0.00,,,0.01,WUHU216HW,2013-02-08 01:00:00,
2013-02-07 19:05:00,71.3,58.9,29.34,SW,225,1.1,2.7,65,0.00,,,0.01,WUHU216HW,2013-02-08 01:05:00,
2013-02-07 19:10:00,71.1,58.7,29.35,WSW,248,0.9,1.8,65,0.00,,,0.01,WUHU216HW,2013-02-08 01:10:00,
2013-02-07 19:15:00,70.7,58.3,29.35,SW,225,1.1,1.8,65,0.00,,,0.01,WUHU216HW,2013-02-08 01:15:00,
2013-02-07 19:20:00,70.6,58.2,29.35,WSW,248,0.0,1.1,65,0.00,,,0.01,WUHU216HW,2013-02-08 01:20:00,
2013-02-07 19:25:00,70.0,58.2,29.35,WNW,293,0.0,0.7,66,0.00,,,0.01,WUHU216HW,2013-02-08 01:25:00,
2013-02-07 19:31:00,69.7,57.8,29.36,SSW,203,0.0,0.0,66,0.00,,,0.01,WUHU216HW,2013-02-08 01:31:00,
2013-02-07 19:36:00,69.5,58.0,29.36,West,270,0.7,0.9,67,0.00,,,0.01,WUHU216HW,2013-02-08 01:36:00,
2013-02-07 19:41:00,69.1,57.7,29.37,North,0,0.4,0.9,67,0.00,,,0.01,WUHU216HW,2013-02-08 01:41:00,
2013-02-07 19:46:00,68.8,57.8,29.37,North,0,0.2,1.3,68,0.00,,,0.01,WUHU216HW,2013-02-08 01:46:00,
2013-02-07 19:51:00,68.4,57.9,29.37,North,0,0.0,1.3,69,0.00,,,0.01,WUHU216HW,2013-02-08 01:51:00,
2013-02-07 19:56:00,68.0,58.3,29.38,NNW,338,2.7,2.7,71,0.00,,,0.01,WUHU216HW,2013-02-08 01:56:00,
2013-02-07 20:01:00,67.9,57.8,29.39,NNW,338,4.0,4.0,70,0.00,,,0.01,WUHU216HW,2013-02-08 02:01:00,
2013-02-07 20:06:00,68.4,54.5,29.39,North,0,3.1,4.0,61,0.00,,,0.01,WUHU216HW,2013-02-08 02:06:00,
2013-02-07 20:11:00,68.9,51.6,29.39,North,0,2.2,3.8,54,0.00,,,0.01,WUHU216HW,2013-02-08 02:11:00,
2013-02-07 20:16:00,69.7,50.2,29.39,NW,315,2.5,4.7,50,0.00,,,0.01,WUHU216HW,2013-02-08 02:16:00,
2013-02-07 20:21:00,70.0,48.2,29.39,North,0,2.7,4.7,46,0.00,,,0.01,WUHU216HW,2013-02-08 02:21:00,
2013-02-07 20:26:00,70.0,48.2,29.40,North,0,1.6,3.4,46,0.00,,,0.01,WUHU216HW,2013-02-08 02:26:00,
2013-02-07 20:32:00,69.7,47.9,29.40,North,0,2.2,2.5,46,0.00,,,0.01,WUHU216HW,2013-02-08 02:32:00,
2013-02-07 20:37:00,69.7,47.3,29.40,North,0,2.2,2.2,45,0.00,,,0.01,WUHU216HW,2013-02-08 02:37:00,
2013-02-07 20:42:00,69.5,47.7,29.40,North,0,1.8,2.2,46,0.00,,,0.01,WUHU216HW,2013-02-08 02:42:00,
2013-02-07 20:47:00,69.3,47.5,29.40,North,0,1.1,1.8,46,0.00,,,0.01,WUHU216HW,2013-02-08 02:47:00,
2013-02-07 20:52:00,68.9,47.8,29.41,NNE,23,1.1,1.6,47,0.00,,,0.01,WUHU216HW,2013-02-08 02:52:00,
2013-02-07 20:57:00,68.6,47.5,29.41,NNE,23,1.6,1.6,47,0.00,,,0.01,WUHU216HW,2013-02-08 02:57:00,
2013-02-07 21:02:00,68.0,46.5,29.41,NE,45,0.7,1.6,46,0.00,,,0.01,WUHU216HW,2013-02-08 03:02:00,
2013-02-07 21:07:00,67.7,46.7,29.42,North,0,0.9,1.6,47,0.00,,,0.01,WUHU216HW,2013-02-08 03:07:00,
2013-02-07 21:12:00,67.1,46.2,29.42,NNE,23,0.9,1.1,47,0.00,,,0.01,WUHU216HW,2013-02-08 03:12:00,
2013-02-07 21:18:00,66.8,44.1,29.42,NNE,23,1.3,4.9,44,0.00,,,0.01,WUHU216HW,2013-02-08 03:18:00,
2013-02-07 21:23:00,67.0,43.7,29.43,North,0,3.1,4.9,43,0.00,,,0.01,WUHU216HW,2013-02-08 03:23:00,
2013-02-07 21:28:00,66.8,42.3,29.43,NNE,23,4.7,4.7,41,0.00,,,0.01,WUHU216HW,2013-02-08 03:28:00,
2013-02-07 21:33:00,66.8,41.7,29.44,NNE,23,3.8,4.7,40,0.00,,,0.01,WUHU216HW,2013-02-08 03:33:00,
2013-02-07 21:38:00,66.8,41.0,29.44,NNE,23,4.0,4.5,39,0.00,,,0.01,WUHU216HW,2013-02-08 03:38:00,
2013-02-07 21:43:00,66.6,40.9,29.44,NNE,23,4.7,4.7,39,0.00,,,0.01,WUHU216HW,2013-02-08 03:43:00,
2013-02-07 21:48:00,66.6,40.9,29.45,NE,45,3.8,4.7,39,0.00,,,0.01,WUHU216HW,2013-02-08 03:48:00,
2013-02-07 21:53:00,66.4,40.7,29.45,NNE,23,3.4,5.6,39,0.00,,,0.01,WUHU216HW,2013-02-08 03:53:00,
2013-02-07 21:58:00,66.4,41.4,29.45,NNE,23,4.7,5.6,40,0.00,,,0.01,WUHU216HW,2013-02-08 03:58:00,
2013-02-07 22:03:00,66.2,41.9,29.45,NNE,23,2.5,4.7,41,0.00,,,0.01,WUHU216HW,2013-02-08 04:03:00,
2013-02-07 22:08:00,66.2,41.9,29.45,NNE,23,3.6,4.7,41,0.00,,,0.01,WUHU216HW,2013-02-08 04:08:00,
2013-02-07 22:14:00,66.2,42.4,29.45,NNE,23,3.4,5.4,42,0.00,,,0.01,WUHU216HW,2013-02-08 04:14:00,
2013-02-07 22:19:00,66.2,43.0,29.45,North,0,2.7,6.5,43,0.00,,,0.01,WUHU216HW,2013-02-08 04:19:00,
2013-02-07 22:24:00,65.9,42.7,29.45,NNE,23,3.6,6.5,43,0.00,,,0.01,WUHU216HW,2013-02-08 04:24:00,
2013-02-07 22:29:00,65.7,43.1,29.45,NNW,338,3.8,4.0,44,0.00,,,0.01,WUHU216HW,2013-02-08 04:29:00,
2013-02-07 22:34:00,65.5,43.5,29.45,NNW,338,4.0,5.6,45,0.00,,,0.01,WUHU216HW,2013-02-08 04:34:00,
2013-02-07 22:39:00,65.0,43.6,29.46,NNE,23,3.4,5.6,46,0.00,,,0.01,WUHU216HW,2013-02-08 04:39:00,
2013-02-07 22:44:00,64.4,43.7,29.46,NE,45,2.2,4.9,47,0.00,,,0.01,WUHU216HW,2013-02-08 04:44:00,
2013-02-07 22:50:00,64.1,43.3,29.46,NNE,23,2.9,4.9,47,0.00,,,0.01,WUHU216HW,2013-02-08 04:50:00,
2013-02-07 22:55:00,63.9,43.8,29.46,North,0,2.9,4.0,48,0.00,,,0.01,WUHU216HW,2013-02-08 04:55:00,
2013-02-07 23:00:00,63.9,44.3,29.47,NE,45,4.7,7.2,49,0.00,,,0.01,WUHU216HW,2013-02-08 05:00:00,
2013-02-07 23:05:00,63.9,44.3,29.46,North,0,4.3,5.6,49,0.00,,,0.01,WUHU216HW,2013-02-08 05:05:00,
2013-02-07 23:10:00,63.9,44.9,29.47,North,0,5.6,5.6,50,0.00,,,0.01,WUHU216HW,2013-02-08 05:10:00,
2013-02-07 23:16:00,63.7,44.7,29.47,North,0,3.4,5.6,50,0.00,,,0.01,WUHU216HW,2013-02-08 05:16:00,
2013-02-07 23:21:00,63.7,45.2,29.47,North,0,5.4,5.6,51,0.00,,,0.01,WUHU216HW,2013-02-08 05:21:00,
2013-02-07 23:26:00,63.5,45.6,29.47,North,0,4.7,5.6,52,0.00,,,0.01,WUHU216HW,2013-02-08 05:26:00,
2013-02-07 23:31:00,63.4,45.8,29.47,NNE,23,4.3,5.8,53,0.00,,,0.01,WUHU216HW,2013-02-08 05:31:00,
2013-02-07 23:36:00,63.2,46.2,29.47,NNE,23,5.4,5.8,54,0.00,,,0.01,WUHU216HW,2013-02-08 05:36:00,
2013-02-07 23:41:00,63.0,46.5,29.47,North,0,5.4,5.6,55,0.00,,,0.01,WUHU216HW,2013-02-08 05:41:00,
2013-02-07 23:46:00,62.6,46.2,29.47,North,0,4.5,6.3,55,0.00,,,0.01,WUHU216HW,2013-02-08 05:46:00,
2013-02-07 23:51:00,62.5,46.5,29.48,NNE,23,4.7,6.3,56,0.00,,,0.01,WUHU216HW,2013-02-08 05:51:00,
2013-02-07 23:56:00,62.3,46.8,29.48,North,0,3.8,5.1,57,0.00,,,0.01,WUHU216HW,2013-02-08 05:56:00,